Regional Weather Roundup
Issued by NWS

Home | Current Version | Previous Version | Graphics & Text | Print | Product List | Glossary On
Versions: 1 2 3 4 5 6 7 8 9 10 11 12 13 14 15 16 17 18 19 20 21 22 23 24 25 26 27 28 29 30 31 32 33 34 35 36 37 38 39 40 41 42 43 44 45 46 47 48 49 50
000
ASUS43 KLMK 232310
RWRKY
KENTUCKY REGIONAL WEATHER ROUNDUP
NATIONAL WEATHER SERVICE LOUISVILLE KY
700 PM EDT TUE MAY 23 2017

NOTE "FAIR" INDICATES FEW OR NO CLOUDS BELOW 12,000 FEET
WITH NO SIGNIFICANT WEATHER AND/OR OBSTRUCTIONS TO VISIBILITY.

KYZ001>023-026-027-061>063-070>075-240000-
WESTERN AND SOUTH CENTRAL KENTUCKY

CITY           SKY/WX    TMP DP  RH WIND       PRES   REMARKS
PADUCAH        CLOUDY    73  52  47 W6        29.65F
HENDERSON      CLOUDY    73  51  46 W6        29.66F
OWENSBORO      PTSUNNY   74  49  41 NW5       29.65F
HOPKINSVILLE   MOSUNNY   73  53  50 NW6       29.66F
BOWLING GREEN  MOSUNNY   77  52  41 W7        29.65F
GLASGOW        SUNNY     74  53  48 CALM      29.65S
$$

KYZ024-025-028>034-038-045-046-053-240000-
NORTH CENTRAL KENTUCKY

CITY           SKY/WX    TMP DP  RH WIND       PRES   REMARKS
LOUISVILLE/SDF CLOUDY    75  54  47 S3        29.63F
LOUISVILLE/LOU PTSUNNY   75  52  44 S5        29.64F
FORT KNOX      MOSUNNY   73  58  60 CALM      29.63F
$$

KYZ035>037-039>044-047>052-055>060-089>105-240000-
NORTHEAST KENTUCKY

CITY           SKY/WX    TMP DP  RH WIND       PRES   REMARKS
LEXINGTON      CLOUDY    71  60  68 SW3       29.67F
COVINGTON      CLOUDY    72  53  51 CALM      29.66F
FRANKFORT      CLOUDY    74  59  59 E6        29.64F
$$

KYZ054-064>069-076>088-106>120-240000-
SOUTHEAST KENTUCKY

CITY           SKY/WX    TMP DP  RH WIND       PRES   REMARKS
JACKSON        CLOUDY    64  61  90 CALM      29.70F
LONDON         RAIN      61  58  90 SE5       29.69F FOG
SOMERSET       CLOUDY    66  57  72 S5        29.69S
MIDDLESBORO    CLOUDY    66  62  88 CALM      29.68F
MONTICELLO     CLOUDY    68  60  75 NE7       29.69F
$$




USA.gov is the U.S. government's official web portal to all federal, state and local government web resources and services.